Time,TemperatureF,DewpointF,PressureIn,WindDirection,WindDirectionDegrees,WindSpeedMPH,WindSpeedGustMPH,Humidity,HourlyPrecipIn,Conditions,Clouds,dailyrainin,SoftwareType,DateUTC
2013-03-08 00:00:00,33.3,5.9,17.73,North,10,0.0,3.0,31,0.00,,,0.00,meteohub,2013-03-08 05:00:00,
2013-03-08 00:01:00,33.3,5.9,17.73,North,10,0.0,0.0,31,0.00,,,0.00,meteohub,2013-03-08 05:01:00,
2013-03-08 00:02:00,33.3,5.9,17.73,North,10,0.0,0.0,31,0.00,,,0.00,meteohub,2013-03-08 05:02:00,
2013-03-08 00:07:00,33.1,5.7,17.73,NE,41,0.0,0.0,31,0.00,,,0.00,meteohub,2013-03-08 05:07:00,
2013-03-08 00:12:00,32.9,5.5,17.73,NE,37,0.0,0.0,31,0.00,,,0.00,meteohub,2013-03-08 05:12:00,
2013-03-08 00:17:00,32.9,5.5,17.73,NNE,27,0.0,0.0,31,0.00,,,0.00,meteohub,2013-03-08 05:17:00,
2013-03-08 00:22:00,32.7,5.4,17.73,NNE,28,0.0,0.0,31,0.00,,,0.00,meteohub,2013-03-08 05:22:00,
2013-03-08 00:27:00,32.5,5.2,17.73,North,350,0.0,3.0,31,0.00,,,0.00,meteohub,2013-03-08 05:27:00,
2013-03-08 00:32:00,32.5,5.9,17.73,NE,56,4.0,4.0,32,0.00,,,0.00,meteohub,2013-03-08 05:32:00,
2013-03-08 00:37:00,32.5,5.9,17.73,NNE,24,0.0,4.0,32,0.00,,,0.00,meteohub,2013-03-08 05:37:00,
2013-03-08 00:42:00,32.5,5.9,17.73,North,3,0.0,4.0,32,0.00,,,0.00,meteohub,2013-03-08 05:42:00,
2013-03-08 00:47:00,32.5,5.9,17.73,North,11,0.0,4.0,32,0.00,,,0.00,meteohub,2013-03-08 05:47:00,
2013-03-08 00:52:00,32.5,5.9,17.73,North,11,0.0,3.0,32,0.00,,,0.00,meteohub,2013-03-08 05:52:00,
2013-03-08 00:57:00,32.5,5.9,17.73,ENE,60,0.0,3.0,32,0.00,,,0.00,meteohub,2013-03-08 05:57:00,
2013-03-08 01:02:00,32.5,6.6,17.73,NNE,24,0.0,0.0,33,0.00,,,0.00,meteohub,2013-03-08 06:02:00,
2013-03-08 01:07:00,32.5,6.6,17.73,NNW,344,0.0,0.0,33,0.00,,,0.00,meteohub,2013-03-08 06:07:00,
2013-03-08 01:13:00,32.7,6.8,17.73,North,2,0.0,0.0,33,0.00,,,0.00,meteohub,2013-03-08 06:13:00,
2013-03-08 01:18:00,32.7,6.8,17.73,NE,44,0.0,2.0,33,0.00,,,0.00,meteohub,2013-03-08 06:18:00,
2013-03-08 01:23:00,32.7,6.8,17.73,NE,45,0.0,2.0,33,0.00,,,0.00,meteohub,2013-03-08 06:23:00,
2013-03-08 01:28:00,32.5,6.6,17.73,NE,36,0.0,4.0,33,0.00,,,0.00,meteohub,2013-03-08 06:28:00,
2013-03-08 01:33:00,32.5,7.3,17.73,NNE,19,0.0,4.0,34,0.00,,,0.00,meteohub,2013-03-08 06:33:00,
2013-03-08 01:38:00,32.4,7.2,17.73,NNE,28,0.0,4.0,34,0.00,,,0.00,meteohub,2013-03-08 06:38:00,
2013-03-08 01:43:00,32.5,7.3,17.73,North,8,0.0,0.0,34,0.00,,,0.00,meteohub,2013-03-08 06:43:00,
2013-03-08 01:48:00,32.4,6.4,17.73,North,8,0.0,0.0,33,0.00,,,0.00,meteohub,2013-03-08 06:48:00,
2013-03-08 01:53:00,32.2,6.3,17.73,North,8,0.0,0.0,33,0.00,,,0.00,meteohub,2013-03-08 06:53:00,
2013-03-08 01:58:00,31.6,6.4,17.73,North,8,0.0,0.0,34,0.00,,,0.00,meteohub,2013-03-08 06:58:00,
2013-03-08 02:03:00,31.6,6.4,17.73,North,8,0.0,0.0,34,0.00,,,0.00,meteohub,2013-03-08 07:03:00,
2013-03-08 02:08:00,31.5,6.3,17.73,North,8,0.0,0.0,34,0.00,,,0.00,meteohub,2013-03-08 07:08:00,
2013-03-08 02:14:00,31.1,6.1,17.73,North,8,0.0,0.0,34,0.00,,,0.00,meteohub,2013-03-08 07:14:00,
2013-03-08 02:19:00,30.7,5.7,17.73,North,8,0.0,0.0,34,0.00,,,0.00,meteohub,2013-03-08 07:19:00,
2013-03-08 02:24:00,30.4,5.4,17.73,North,8,0.0,0.0,34,0.00,,,0.00,meteohub,2013-03-08 07:24:00,
2013-03-08 02:29:00,29.8,5.5,17.73,North,8,0.0,0.0,35,0.00,,,0.00,meteohub,2013-03-08 07:29:00,
2013-03-08 02:34:00,29.5,5.2,17.73,North,8,0.0,0.0,35,0.00,,,0.00,meteohub,2013-03-08 07:34:00,
2013-03-08 02:39:00,29.1,5.5,17.73,North,8,0.0,0.0,36,0.00,,,0.00,meteohub,2013-03-08 07:39:00,
2013-03-08 02:44:00,28.6,5.0,17.73,North,8,0.0,0.0,36,0.00,,,0.00,meteohub,2013-03-08 07:44:00,
2013-03-08 02:49:00,28.4,5.4,17.73,North,8,0.0,0.0,37,0.00,,,0.00,meteohub,2013-03-08 07:49:00,
2013-03-08 02:54:00,28.0,5.7,17.73,North,8,0.0,0.0,38,0.00,,,0.00,meteohub,2013-03-08 07:54:00,
2013-03-08 02:59:00,27.9,5.5,17.73,North,8,0.0,0.0,38,0.00,,,0.00,meteohub,2013-03-08 07:59:00,
2013-03-08 03:04:00,27.9,6.1,17.73,North,8,0.0,0.0,39,0.00,,,0.00,meteohub,2013-03-08 08:04:00,
2013-03-08 03:10:00,27.9,6.6,17.73,North,8,0.0,0.0,40,0.00,,,0.00,meteohub,2013-03-08 08:10:00,
2013-03-08 03:15:00,27.9,7.2,17.73,North,8,0.0,0.0,41,0.00,,,0.00,meteohub,2013-03-08 08:15:00,
2013-03-08 03:20:00,27.9,7.2,17.73,North,8,0.0,0.0,41,0.00,,,0.00,meteohub,2013-03-08 08:20:00,
2013-03-08 03:25:00,27.7,7.0,17.73,North,8,0.0,0.0,41,0.00,,,0.00,meteohub,2013-03-08 08:25:00,
2013-03-08 03:30:00,27.5,6.8,17.73,North,8,0.0,0.0,41,0.00,,,0.00,meteohub,2013-03-08 08:30:00,
2013-03-08 03:35:00,27.3,6.8,17.73,North,8,0.0,0.0,41,0.00,,,0.00,meteohub,2013-03-08 08:35:00,
2013-03-08 03:40:00,27.3,6.8,17.73,North,8,0.0,0.0,41,0.00,,,0.00,meteohub,2013-03-08 08:40:00,
2013-03-08 03:45:00,27.5,7.3,17.73,North,8,0.0,0.0,42,0.00,,,0.00,meteohub,2013-03-08 08:45:00,
2013-03-08 03:50:00,27.7,7.5,17.73,North,8,0.0,0.0,42,0.00,,,0.00,meteohub,2013-03-08 08:50:00,
2013-03-08 03:55:00,27.9,7.7,17.73,North,8,0.0,0.0,42,0.00,,,0.00,meteohub,2013-03-08 08:55:00,
2013-03-08 04:00:00,27.7,7.5,17.73,North,8,0.0,0.0,42,0.00,,,0.00,meteohub,2013-03-08 09:00:00,
2013-03-08 04:05:00,27.7,7.5,17.73,North,8,0.0,0.0,42,0.00,,,0.00,meteohub,2013-03-08 09:05:00,
2013-03-08 04:11:00,27.5,7.3,17.73,North,8,0.0,0.0,42,0.00,,,0.00,meteohub,2013-03-08 09:11:00,
2013-03-08 04:16:00,27.1,7.2,17.73,North,8,0.0,0.0,42,0.00,,,0.00,meteohub,2013-03-08 09:16:00,
2013-03-08 04:21:00,27.0,7.0,17.73,North,8,0.0,0.0,42,0.00,,,0.00,meteohub,2013-03-08 09:21:00,
2013-03-08 04:26:00,26.8,6.8,17.73,North,8,0.0,0.0,42,0.00,,,0.00,meteohub,2013-03-08 09:26:00,
2013-03-08 04:31:00,26.8,6.8,17.73,North,8,0.0,0.0,42,0.00,,,0.00,meteohub,2013-03-08 09:31:00,
2013-03-08 04:36:00,26.6,7.2,17.73,North,8,0.0,0.0,43,0.00,,,0.00,meteohub,2013-03-08 09:36:00,
2013-03-08 04:41:00,26.6,7.2,17.73,North,8,0.0,0.0,43,0.00,,,0.00,meteohub,2013-03-08 09:41:00,
2013-03-08 04:46:00,26.8,7.3,17.73,NNW,346,0.0,0.0,43,0.00,,,0.00,meteohub,2013-03-08 09:46:00,
2013-03-08 04:51:00,27.0,7.5,17.73,NE,41,0.0,0.0,43,0.00,,,0.00,meteohub,2013-03-08 09:51:00,
2013-03-08 04:56:00,27.0,7.5,17.73,NE,41,0.0,0.0,43,0.00,,,0.00,meteohub,2013-03-08 09:56:00,
2013-03-08 05:01:00,27.0,7.5,17.73,NE,41,0.0,0.0,43,0.00,,,0.00,meteohub,2013-03-08 10:01:00,
2013-03-08 05:07:00,26.8,7.3,17.73,NE,41,0.0,0.0,43,0.00,,,0.00,meteohub,2013-03-08 10:07:00,
2013-03-08 05:12:00,26.6,7.7,17.73,NE,47,0.0,0.0,44,0.00,,,0.00,meteohub,2013-03-08 10:12:00,
2013-03-08 05:17:00,26.6,7.7,17.73,NE,47,0.0,0.0,44,0.00,,,0.00,meteohub,2013-03-08 10:17:00,
2013-03-08 05:22:00,26.6,7.7,17.73,NE,47,0.0,0.0,44,0.00,,,0.00,meteohub,2013-03-08 10:22:00,
2013-03-08 05:27:00,26.8,7.7,17.73,NE,45,0.0,0.0,44,0.00,,,0.00,meteohub,2013-03-08 10:27:00,
2013-03-08 05:32:00,27.0,7.9,17.73,NNW,346,0.0,0.0,44,0.00,,,0.00,meteohub,2013-03-08 10:32:00,
2013-03-08 05:37:00,27.5,8.4,17.73,ENE,69,0.0,0.0,44,0.00,,,0.00,meteohub,2013-03-08 10:37:00,
2013-03-08 05:42:00,27.7,9.1,17.73,North,350,0.0,4.0,45,0.00,,,0.00,meteohub,2013-03-08 10:42:00,
2013-03-08 05:47:00,28.2,9.7,17.73,ENE,61,0.0,4.0,45,0.00,,,0.00,meteohub,2013-03-08 10:47:00,
2013-03-08 05:52:00,28.6,9.9,17.73,ENE,61,0.0,4.0,45,0.00,,,0.00,meteohub,2013-03-08 10:52:00,
2013-03-08 05:58:00,28.8,9.7,17.73,NE,56,0.0,0.0,44,0.00,,,0.00,meteohub,2013-03-08 10:58:00,
2013-03-08 06:03:00,29.1,9.9,17.73,NE,56,0.0,0.0,44,0.00,,,0.00,meteohub,2013-03-08 11:03:00,
2013-03-08 06:08:00,29.7,10.4,17.73,NE,44,0.0,0.0,44,0.00,,,0.00,meteohub,2013-03-08 11:08:00,
2013-03-08 06:13:00,30.0,10.8,17.73,North,0,0.0,3.0,44,0.00,,,0.00,meteohub,2013-03-08 11:13:00,
2013-03-08 06:18:00,30.0,10.2,17.73,NNE,18,0.0,3.0,43,0.00,,,0.00,meteohub,2013-03-08 11:18:00,
2013-03-08 06:23:00,30.0,10.2,17.73,WNW,288,0.0,0.0,43,0.00,,,0.00,meteohub,2013-03-08 11:23:00,
2013-03-08 06:28:00,29.8,10.0,17.73,North,6,0.0,0.0,43,0.00,,,0.00,meteohub,2013-03-08 11:28:00,
2013-03-08 06:33:00,29.8,10.0,17.73,ENE,63,0.0,0.0,43,0.00,,,0.00,meteohub,2013-03-08 11:33:00,
2013-03-08 06:39:00,29.7,9.9,17.73,North,353,0.0,0.0,43,0.00,,,0.00,meteohub,2013-03-08 11:39:00,
2013-03-08 06:44:00,29.8,10.0,17.73,WNW,301,0.0,0.0,43,0.00,,,0.00,meteohub,2013-03-08 11:44:00,
2013-03-08 06:49:00,30.2,10.4,17.73,North,353,0.0,0.0,43,0.00,,,0.00,meteohub,2013-03-08 11:49:00,
2013-03-08 06:54:00,30.7,10.9,17.73,NNW,344,0.0,0.0,43,0.00,,,0.00,meteohub,2013-03-08 11:54:00,
2013-03-08 06:59:00,31.1,10.8,17.73,NNW,345,0.0,0.0,42,0.00,,,0.00,meteohub,2013-03-08 11:59:00,
2013-03-08 07:04:00,31.3,10.8,17.73,NNE,28,0.0,0.0,42,0.00,,,0.00,meteohub,2013-03-08 12:04:00,
2013-03-08 07:09:00,31.5,10.9,17.73,NNE,25,0.0,0.0,42,0.00,,,0.00,meteohub,2013-03-08 12:09:00,
2013-03-08 07:14:00,31.8,11.3,17.73,NNE,28,0.0,0.0,42,0.00,,,0.00,meteohub,2013-03-08 12:14:00,
2013-03-08 07:20:00,32.0,10.9,17.73,ENE,68,0.0,5.0,41,0.00,,,0.00,meteohub,2013-03-08 12:20:00,
2013-03-08 07:25:00,32.5,11.5,17.73,NW,325,4.0,5.0,41,0.00,,,0.00,meteohub,2013-03-08 12:25:00,
2013-03-08 07:30:00,32.9,11.8,17.73,NNE,27,2.0,4.0,41,0.00,,,0.00,meteohub,2013-03-08 12:30:00,
2013-03-08 07:35:00,33.3,12.0,17.73,NW,307,2.0,4.0,41,0.00,,,0.00,meteohub,2013-03-08 12:35:00,
2013-03-08 07:40:00,33.8,12.0,17.73,NNW,338,3.0,6.0,40,0.00,,,0.00,meteohub,2013-03-08 12:40:00,
2013-03-08 07:45:00,34.3,12.6,17.73,WNW,288,2.0,6.0,40,0.00,,,0.00,meteohub,2013-03-08 12:45:00,
2013-03-08 07:50:00,34.5,12.0,17.73,NW,306,3.0,6.0,39,0.00,,,0.00,meteohub,2013-03-08 12:50:00,
2013-03-08 07:55:00,35.2,12.2,17.73,North,0,0.0,6.0,38,0.00,,,0.00,meteohub,2013-03-08 12:55:00,
2013-03-08 08:00:00,35.6,11.3,17.73,NNW,342,6.0,6.0,36,0.00,,,0.00,meteohub,2013-03-08 13:00:00,
2013-03-08 08:05:00,36.1,10.4,17.73,ENE,77,3.0,6.0,34,0.00,,,0.00,meteohub,2013-03-08 13:05:00,
2013-03-08 08:10:00,36.7,10.2,17.73,WNW,284,3.0,6.0,33,0.00,,,0.00,meteohub,2013-03-08 13:10:00,
2013-03-08 08:15:00,37.2,10.8,17.73,North,8,4.0,6.0,33,0.00,,,0.00,meteohub,2013-03-08 13:15:00,
2013-03-08 08:21:00,37.6,10.4,17.73,ENE,60,0.0,8.0,32,0.00,,,0.00,meteohub,2013-03-08 13:21:00,
2013-03-08 08:26:00,37.9,10.0,17.73,North,1,4.0,11.0,31,0.00,,,0.00,meteohub,2013-03-08 13:26:00,
2013-03-08 08:31:00,38.5,10.4,17.73,NNW,337,5.0,11.0,31,0.00,,,0.00,meteohub,2013-03-08 13:31:00,
2013-03-08 08:36:00,39.0,10.9,17.73,NE,44,5.0,11.0,31,0.00,,,0.00,meteohub,2013-03-08 13:36:00,
2013-03-08 08:41:00,39.6,10.8,17.73,NNE,14,4.0,8.0,30,0.00,,,0.00,meteohub,2013-03-08 13:41:00,
2013-03-08 08:46:00,39.9,10.9,17.73,NW,312,4.0,7.0,30,0.00,,,0.00,meteohub,2013-03-08 13:46:00,
2013-03-08 08:51:00,40.5,10.8,17.73,NNE,33,3.0,6.0,29,0.00,,,0.00,meteohub,2013-03-08 13:51:00,
2013-03-08 08:56:00,41.2,11.3,17.73,ENE,74,4.0,10.0,29,0.00,,,0.00,meteohub,2013-03-08 13:56:00,
2013-03-08 09:01:00,41.7,11.8,17.73,NNW,333,4.0,10.0,29,0.00,,,0.00,meteohub,2013-03-08 14:01:00,
2013-03-08 09:06:00,42.8,12.0,17.73,NE,37,4.0,10.0,28,0.00,,,0.00,meteohub,2013-03-08 14:06:00,
2013-03-08 09:11:00,43.9,12.9,17.73,NE,47,10.0,10.0,28,0.00,,,0.00,meteohub,2013-03-08 14:11:00,
2013-03-08 09:17:00,44.8,11.1,17.73,WSW,257,8.0,11.0,25,0.00,,,0.00,meteohub,2013-03-08 14:17:00,
2013-03-08 09:22:00,45.5,11.7,17.73,NNE,24,3.0,11.0,25,0.00,,,0.00,meteohub,2013-03-08 14:22:00,
2013-03-08 09:27:00,46.2,12.4,17.73,NE,36,9.0,12.0,25,0.00,,,0.00,meteohub,2013-03-08 14:27:00,
2013-03-08 09:32:00,46.8,11.8,17.73,WNW,283,5.0,12.0,24,0.00,,,0.00,meteohub,2013-03-08 14:32:00,
2013-03-08 09:37:00,47.3,10.4,17.73,NW,314,3.0,12.0,22,0.00,,,0.00,meteohub,2013-03-08 14:37:00,
2013-03-08 09:42:00,47.8,10.8,17.73,NNE,12,8.0,11.0,22,0.00,,,0.00,meteohub,2013-03-08 14:42:00,
2013-03-08 09:47:00,48.2,10.0,17.73,NNE,23,13.0,13.0,21,0.00,,,0.00,meteohub,2013-03-08 14:47:00,
2013-03-08 09:52:00,48.6,10.4,17.73,NE,35,6.0,13.0,21,0.00,,,0.00,meteohub,2013-03-08 14:52:00,
2013-03-08 09:57:00,48.7,8.2,17.73,North,8,9.0,13.0,19,0.00,,,0.00,meteohub,2013-03-08 14:57:00,
2013-03-08 10:02:00,48.7,8.2,17.73,NW,310,4.0,13.0,19,0.00,,,0.00,meteohub,2013-03-08 15:02:00,
2013-03-08 10:07:00,48.9,8.4,17.73,NNE,15,3.0,12.0,19,0.00,,,0.00,meteohub,2013-03-08 15:07:00,
2013-03-08 10:12:00,49.8,9.1,17.73,NNE,14,5.0,12.0,19,0.00,,,0.00,meteohub,2013-03-08 15:12:00,
2013-03-08 10:17:00,50.5,9.9,17.73,NE,45,7.0,13.0,19,0.00,,,0.00,meteohub,2013-03-08 15:17:00,
2013-03-08 10:22:00,51.1,6.4,17.73,NNE,27,3.0,13.0,16,0.00,,,0.00,meteohub,2013-03-08 15:22:00,
2013-03-08 10:27:00,50.7,6.1,17.73,NNW,328,4.0,13.0,16,0.00,,,0.00,meteohub,2013-03-08 15:27:00,
2013-03-08 10:32:00,50.2,5.7,17.73,NNE,30,4.0,8.0,16,0.00,,,0.00,meteohub,2013-03-08 15:32:00,
2013-03-08 10:37:00,50.0,5.5,17.73,NNW,348,3.0,10.0,16,0.00,,,0.00,meteohub,2013-03-08 15:37:00,
2013-03-08 10:42:00,50.2,5.7,17.73,WNW,301,4.0,10.0,16,0.00,,,0.00,meteohub,2013-03-08 15:42:00,
2013-03-08 10:47:00,50.7,6.1,17.73,NNE,26,8.0,10.0,16,0.00,,,0.00,meteohub,2013-03-08 15:47:00,
2013-03-08 10:52:00,51.4,6.8,17.73,NNE,29,8.0,10.0,16,0.00,,,0.00,meteohub,2013-03-08 15:52:00,
2013-03-08 10:57:00,52.2,7.3,17.73,NE,41,4.0,10.0,16,0.00,,,0.00,meteohub,2013-03-08 15:57:00,
2013-03-08 11:02:00,52.2,7.3,17.73,NNE,12,3.0,12.0,16,0.00,,,0.00,meteohub,2013-03-08 16:02:00,
2013-03-08 11:07:00,52.5,7.5,17.73,NNW,335,6.0,12.0,16,0.00,,,0.00,meteohub,2013-03-08 16:07:00,
2013-03-08 11:12:00,53.1,8.1,17.73,North,350,3.0,12.0,16,0.00,,,0.00,meteohub,2013-03-08 16:12:00,
2013-03-08 11:17:00,53.2,8.2,17.73,WSW,252,6.0,9.0,16,0.00,,,0.00,meteohub,2013-03-08 16:17:00,
2013-03-08 11:22:00,53.6,7.0,17.73,NNW,337,5.0,12.0,15,0.00,,,0.00,meteohub,2013-03-08 16:22:00,
2013-03-08 11:27:00,54.0,7.3,17.73,NW,323,4.0,12.0,15,0.00,,,0.00,meteohub,2013-03-08 16:27:00,
2013-03-08 11:33:00,54.0,7.3,17.73,NE,47,11.0,11.0,15,0.00,,,0.00,meteohub,2013-03-08 16:33:00,
2013-03-08 11:38:00,53.8,7.2,17.73,ENE,65,15.0,15.0,15,0.00,,,0.00,meteohub,2013-03-08 16:38:00,
2013-03-08 11:43:00,53.6,7.0,17.73,NNE,18,3.0,15.0,15,0.00,,,0.00,meteohub,2013-03-08 16:43:00,
2013-03-08 11:48:00,53.8,7.2,17.73,NE,39,4.0,15.0,15,0.00,,,0.00,meteohub,2013-03-08 16:48:00,
2013-03-08 11:53:00,54.1,7.5,17.73,North,357,3.0,15.0,15,0.00,,,0.00,meteohub,2013-03-08 16:53:00,
2013-03-08 11:58:00,54.3,7.7,17.73,WNW,288,8.0,12.0,15,0.00,,,0.00,meteohub,2013-03-08 16:58:00,
2013-03-08 12:03:00,54.5,4.6,17.73,NW,326,3.0,12.0,13,0.00,,,0.00,meteohub,2013-03-08 17:03:00,
2013-03-08 12:09:00,54.1,4.3,17.73,NE,45,4.0,12.0,13,0.00,,,0.00,meteohub,2013-03-08 17:09:00,
2013-03-08 12:14:00,54.7,4.8,17.73,East,81,8.0,11.0,13,0.00,,,0.00,meteohub,2013-03-08 17:14:00,
2013-03-08 12:19:00,55.0,5.0,17.73,NNW,328,3.0,14.0,13,0.00,,,0.00,meteohub,2013-03-08 17:19:00,
2013-03-08 12:24:00,55.8,8.8,17.73,NE,53,8.0,14.0,15,0.00,,,0.00,meteohub,2013-03-08 17:24:00,
2013-03-08 12:29:00,56.3,4.3,17.73,West,268,5.0,12.0,12,0.00,,,0.00,meteohub,2013-03-08 17:29:00,
2013-03-08 12:34:00,56.1,4.1,17.73,North,357,3.0,12.0,12,0.00,,,0.00,meteohub,2013-03-08 17:34:00,
2013-03-08 12:39:00,56.1,4.1,17.73,NW,318,8.0,13.0,12,0.00,,,0.00,meteohub,2013-03-08 17:39:00,
2013-03-08 12:45:00,56.5,4.5,17.73,NE,45,12.0,13.0,12,0.00,,,0.00,meteohub,2013-03-08 17:45:00,
2013-03-08 12:50:00,57.2,5.0,17.73,North,11,6.0,12.0,12,0.00,,,0.00,meteohub,2013-03-08 17:50:00,
2013-03-08 12:55:00,57.6,5.4,17.73,NE,49,5.0,13.0,12,0.00,,,0.00,meteohub,2013-03-08 17:55:00,
2013-03-08 13:00:00,57.4,5.2,17.73,West,276,0.0,13.0,12,0.00,,,0.00,meteohub,2013-03-08 18:00:00,
2013-03-08 13:05:00,57.0,4.8,17.73,NW,315,5.0,11.0,12,0.00,,,0.00,meteohub,2013-03-08 18:05:00,
2013-03-08 13:10:00,57.0,4.8,17.73,SW,226,4.0,11.0,12,0.00,,,0.00,meteohub,2013-03-08 18:10:00,
2013-03-08 13:15:00,56.8,4.8,17.73,NNE,12,4.0,11.0,12,0.00,,,0.00,meteohub,2013-03-08 18:15:00,
2013-03-08 13:20:00,56.7,4.6,17.73,West,262,3.0,16.0,12,0.00,,,0.00,meteohub,2013-03-08 18:20:00,
2013-03-08 13:25:00,57.2,5.0,17.73,NNE,13,6.0,16.0,12,0.00,,,0.00,meteohub,2013-03-08 18:25:00,
2013-03-08 13:30:00,57.9,5.5,17.73,ENE,63,3.0,12.0,12,0.00,,,0.00,meteohub,2013-03-08 18:30:00,
2013-03-08 13:36:00,58.1,5.7,17.73,NW,326,8.0,12.0,12,0.00,,,0.00,meteohub,2013-03-08 18:36:00,
2013-03-08 13:41:00,58.1,5.7,17.73,North,0,5.0,12.0,12,0.00,,,0.00,meteohub,2013-03-08 18:41:00,
2013-03-08 13:46:00,58.1,5.7,17.73,North,357,11.0,15.0,12,0.00,,,0.00,meteohub,2013-03-08 18:46:00,
2013-03-08 13:51:00,57.9,5.5,17.73,NNE,32,6.0,15.0,12,0.00,,,0.00,meteohub,2013-03-08 18:51:00,
2013-03-08 13:56:00,58.5,6.1,17.73,ENE,70,11.0,15.0,12,0.00,,,0.00,meteohub,2013-03-08 18:56:00,
2013-03-08 14:01:00,58.6,6.1,17.73,North,10,8.0,13.0,12,0.00,,,0.00,meteohub,2013-03-08 19:01:00,
2013-03-08 14:06:00,58.8,6.3,17.73,WNW,302,3.0,13.0,12,0.00,,,0.00,meteohub,2013-03-08 19:06:00,
2013-03-08 14:11:00,59.5,6.8,17.73,SW,236,3.0,13.0,12,0.00,,,0.00,meteohub,2013-03-08 19:11:00,
2013-03-08 14:16:00,59.7,7.0,17.73,NNE,26,3.0,13.0,12,0.00,,,0.00,meteohub,2013-03-08 19:16:00,
2013-03-08 14:21:00,59.2,6.6,17.73,North,4,3.0,8.0,12,0.00,,,0.00,meteohub,2013-03-08 19:21:00,
2013-03-08 14:27:00,58.6,6.1,17.73,SE,126,3.0,13.0,12,0.00,,,0.00,meteohub,2013-03-08 19:27:00,
2013-03-08 14:32:00,58.8,6.3,17.73,NE,36,6.0,13.0,12,0.00,,,0.00,meteohub,2013-03-08 19:32:00,
2013-03-08 14:37:00,58.5,6.1,17.73,WNW,297,6.0,12.0,12,0.00,,,0.00,meteohub,2013-03-08 19:37:00,
2013-03-08 14:42:00,57.9,5.5,17.73,North,353,6.0,12.0,12,0.00,,,0.00,meteohub,2013-03-08 19:42:00,
2013-03-08 14:47:00,58.1,5.7,17.73,East,98,8.0,12.0,12,0.00,,,0.00,meteohub,2013-03-08 19:47:00,
2013-03-08 14:52:00,58.1,5.7,17.73,WNW,302,4.0,12.0,12,0.00,,,0.00,meteohub,2013-03-08 19:52:00,
2013-03-08 14:57:00,58.8,6.3,17.73,NNE,13,4.0,12.0,12,0.00,,,0.00,meteohub,2013-03-08 19:57:00,
2013-03-08 15:02:00,59.9,7.2,17.73,NNW,342,7.0,11.0,12,0.00,,,0.00,meteohub,2013-03-08 20:02:00,
2013-03-08 15:07:00,60.4,7.5,17.73,NNW,338,4.0,9.0,12,0.00,,,0.00,meteohub,2013-03-08 20:07:00,
2013-03-08 15:12:00,59.7,7.0,17.73,North,357,4.0,10.0,12,0.00,,,0.00,meteohub,2013-03-08 20:12:00,
2013-03-08 15:17:00,59.2,6.6,17.73,East,84,3.0,10.0,12,0.00,,,0.00,meteohub,2013-03-08 20:17:00,
2013-03-08 15:22:00,59.2,6.6,17.73,SSE,162,0.0,10.0,12,0.00,,,0.00,meteohub,2013-03-08 20:22:00,
2013-03-08 15:27:00,59.7,7.0,17.73,North,357,6.0,10.0,12,0.00,,,0.00,meteohub,2013-03-08 20:27:00,
2013-03-08 15:32:00,59.9,7.2,17.73,West,279,4.0,13.0,12,0.00,,,0.00,meteohub,2013-03-08 20:32:00,
2013-03-08 15:38:00,60.1,7.3,17.73,North,0,3.0,13.0,12,0.00,,,0.00,meteohub,2013-03-08 20:38:00,
2013-03-08 15:43:00,59.9,7.2,17.73,NNW,327,4.0,13.0,12,0.00,,,0.00,meteohub,2013-03-08 20:43:00,
2013-03-08 15:48:00,59.9,7.2,17.73,NNE,17,6.0,9.0,12,0.00,,,0.00,meteohub,2013-03-08 20:48:00,
2013-03-08 15:53:00,59.7,7.0,17.73,North,357,3.0,9.0,12,0.00,,,0.00,meteohub,2013-03-08 20:53:00,
2013-03-08 15:58:00,60.1,7.3,17.73,NNW,348,6.0,9.0,12,0.00,,,0.00,meteohub,2013-03-08 20:58:00,
2013-03-08 16:03:00,59.9,7.2,17.73,NNW,337,4.0,8.0,12,0.00,,,0.00,meteohub,2013-03-08 21:03:00,
2013-03-08 16:08:00,59.2,6.6,17.73,NE,45,3.0,9.0,12,0.00,,,0.00,meteohub,2013-03-08 21:08:00,
2013-03-08 16:13:00,58.5,6.1,17.73,North,11,10.0,10.0,12,0.00,,,0.00,meteohub,2013-03-08 21:13:00,
2013-03-08 16:18:00,58.5,6.1,17.73,ENE,63,4.0,9.0,12,0.00,,,0.00,meteohub,2013-03-08 21:18:00,
2013-03-08 16:23:00,58.1,5.7,17.73,NW,315,3.0,12.0,12,0.00,,,0.00,meteohub,2013-03-08 21:23:00,
2013-03-08 16:29:00,57.7,5.4,17.73,NE,43,8.0,12.0,12,0.00,,,0.00,meteohub,2013-03-08 21:29:00,
2013-03-08 16:34:00,57.4,5.2,17.73,North,357,5.0,12.0,12,0.00,,,0.00,meteohub,2013-03-08 21:34:00,
2013-03-08 16:39:00,57.2,5.0,17.73,NNW,343,2.0,12.0,12,0.00,,,0.00,meteohub,2013-03-08 21:39:00,
2013-03-08 16:44:00,56.8,4.8,17.73,NNW,338,4.0,8.0,12,0.00,,,0.00,meteohub,2013-03-08 21:44:00,
2013-03-08 16:49:00,56.3,4.3,17.73,SSW,211,2.0,6.0,12,0.00,,,0.00,meteohub,2013-03-08 21:49:00,
2013-03-08 16:54:00,56.3,4.3,17.73,North,0,5.0,9.0,12,0.00,,,0.00,meteohub,2013-03-08 21:54:00,
2013-03-08 17:00:00,56.1,4.1,17.73,NW,320,3.0,10.0,12,0.00,,,0.00,meteohub,2013-03-08 22:00:00,
2013-03-08 17:05:00,55.8,3.9,17.73,North,3,3.0,10.0,12,0.00,,,0.00,meteohub,2013-03-08 22:05:00,
2013-03-08 17:10:00,55.4,3.6,17.73,NNE,29,11.0,11.0,12,0.00,,,0.00,meteohub,2013-03-08 22:10:00,
2013-03-08 17:15:00,54.9,5.0,17.73,West,278,3.0,11.0,13,0.00,,,0.00,meteohub,2013-03-08 22:15:00,
2013-03-08 17:20:00,54.5,4.6,17.73,WNW,303,3.0,11.0,13,0.00,,,0.00,meteohub,2013-03-08 22:20:00,
2013-03-08 17:25:00,54.0,4.3,17.73,North,0,8.0,11.0,13,0.00,,,0.00,meteohub,2013-03-08 22:25:00,
2013-03-08 17:30:00,53.4,3.7,17.73,NNW,333,5.0,9.0,13,0.00,,,0.00,meteohub,2013-03-08 22:30:00,
2013-03-08 17:35:00,53.1,3.6,17.73,WNW,299,3.0,12.0,13,0.00,,,0.00,meteohub,2013-03-08 22:35:00,
2013-03-08 17:40:00,52.7,3.2,17.73,North,4,3.0,12.0,13,0.00,,,0.00,meteohub,2013-03-08 22:40:00,
2013-03-08 17:45:00,52.3,2.8,17.73,NE,42,0.0,12.0,13,0.00,,,0.00,meteohub,2013-03-08 22:45:00,
2013-03-08 17:50:00,52.0,2.7,17.73,North,353,3.0,9.0,13,0.00,,,0.00,meteohub,2013-03-08 22:50:00,
2013-03-08 17:55:00,51.6,3.9,17.73,NNE,20,3.0,6.0,14,0.00,,,0.00,meteohub,2013-03-08 22:55:00,
2013-03-08 18:00:00,51.4,3.7,17.73,NE,46,3.0,6.0,14,0.00,,,0.00,meteohub,2013-03-08 23:00:00,
2013-03-08 18:06:00,51.1,3.6,17.73,NNE,12,3.0,6.0,14,0.00,,,0.00,meteohub,2013-03-08 23:06:00,
2013-03-08 18:11:00,50.7,3.2,17.73,NNE,26,3.0,6.0,14,0.00,,,0.00,meteohub,2013-03-08 23:11:00,
2013-03-08 18:16:00,50.4,3.0,17.73,NE,56,7.0,7.0,14,0.00,,,0.00,meteohub,2013-03-08 23:16:00,
2013-03-08 18:21:00,50.2,2.8,17.73,North,2,3.0,8.0,14,0.00,,,0.00,meteohub,2013-03-08 23:21:00,
2013-03-08 18:26:00,50.0,2.7,17.73,NNW,342,0.0,8.0,14,0.00,,,0.00,meteohub,2013-03-08 23:26:00,
2013-03-08 18:31:00,49.6,2.3,17.73,ENE,58,0.0,8.0,14,0.00,,,0.00,meteohub,2013-03-08 23:31:00,
2013-03-08 18:36:00,49.3,2.1,17.73,NE,40,3.0,6.0,14,0.00,,,0.00,meteohub,2013-03-08 23:36:00,
2013-03-08 18:41:00,48.7,1.6,17.73,NNW,340,0.0,6.0,14,0.00,,,0.00,meteohub,2013-03-08 23:41:00,
2013-03-08 18:46:00,48.6,1.6,17.73,NE,35,0.0,5.0,14,0.00,,,0.00,meteohub,2013-03-08 23:46:00,
2013-03-08 18:51:00,48.2,1.2,17.73,North,10,0.0,4.0,14,0.00,,,0.00,meteohub,2013-03-08 23:51:00,
2013-03-08 18:57:00,47.8,0.9,17.73,NE,45,3.0,4.0,14,0.00,,,0.00,meteohub,2013-03-08 23:57:00,
2013-03-08 19:02:00,47.5,0.7,17.73,NNW,340,0.0,4.0,14,0.00,,,0.00,meteohub,2013-03-09 00:02:00,
2013-03-08 19:07:00,47.5,0.7,17.73,NNW,342,4.0,5.0,14,0.00,,,0.00,meteohub,2013-03-09 00:07:00,
2013-03-08 19:12:00,47.3,0.5,17.73,NNE,14,2.0,5.0,14,0.00,,,0.00,meteohub,2013-03-09 00:12:00,
2013-03-08 19:17:00,47.3,0.5,17.73,NNE,15,4.0,5.0,14,0.00,,,0.00,meteohub,2013-03-09 00:17:00,
2013-03-08 19:22:00,47.1,0.3,17.73,NNE,18,0.0,5.0,14,0.00,,,0.00,meteohub,2013-03-09 00:22:00,
2013-03-08 19:27:00,46.9,0.1,17.73,North,357,3.0,5.0,14,0.00,,,0.00,meteohub,2013-03-09 00:27:00,
2013-03-08 19:32:00,46.8,0.0,17.73,NE,46,0.0,5.0,14,0.00,,,0.00,meteohub,2013-03-09 00:32:00,
2013-03-08 19:37:00,46.6,0.0,17.73,NNE,16,0.0,5.0,14,0.00,,,0.00,meteohub,2013-03-09 00:37:00,
2013-03-08 19:42:00,46.4,-0.2,17.73,NE,34,0.0,5.0,14,0.00,,,0.00,meteohub,2013-03-09 00:42:00,
2013-03-08 19:47:00,46.2,1.0,17.73,NE,51,3.0,6.0,15,0.00,,,0.00,meteohub,2013-03-09 00:47:00,
2013-03-08 19:52:00,46.0,0.9,17.73,ENE,60,0.0,6.0,15,0.00,,,0.00,meteohub,2013-03-09 00:52:00,
2013-03-08 19:57:00,46.0,0.9,17.73,NE,47,3.0,6.0,15,0.00,,,0.00,meteohub,2013-03-09 00:57:00,
2013-03-08 20:02:00,45.9,0.9,17.73,NNE,30,3.0,6.0,15,0.00,,,0.00,meteohub,2013-03-09 01:02:00,
2013-03-08 20:07:00,45.5,0.5,17.73,NNE,23,5.0,6.0,15,0.00,,,0.00,meteohub,2013-03-09 01:07:00,
2013-03-08 20:12:00,45.5,0.5,17.73,North,5,0.0,6.0,15,0.00,,,0.00,meteohub,2013-03-09 01:12:00,
2013-03-08 20:17:00,45.3,0.3,17.73,NE,40,5.0,6.0,15,0.00,,,0.00,meteohub,2013-03-09 01:17:00,
2013-03-08 20:22:00,45.1,0.1,17.73,North,4,0.0,5.0,15,0.00,,,0.00,meteohub,2013-03-09 01:22:00,
2013-03-08 20:27:00,44.8,0.0,17.73,NNE,33,0.0,5.0,15,0.00,,,0.00,meteohub,2013-03-09 01:27:00,
2013-03-08 20:32:00,44.4,-0.4,17.73,North,353,4.0,5.0,15,0.00,,,0.00,meteohub,2013-03-09 01:32:00,
2013-03-08 20:37:00,44.1,-0.6,17.73,NNE,20,0.0,5.0,15,0.00,,,0.00,meteohub,2013-03-09 01:37:00,
2013-03-08 20:42:00,43.7,-0.9,17.73,NNE,21,0.0,5.0,15,0.00,,,0.00,meteohub,2013-03-09 01:42:00,
2013-03-08 20:47:00,43.3,-1.3,17.73,ENE,67,0.0,5.0,15,0.00,,,0.00,meteohub,2013-03-09 01:47:00,
2013-03-08 20:52:00,43.0,-1.5,17.73,North,350,3.0,4.0,15,0.00,,,0.00,meteohub,2013-03-09 01:52:00,
2013-03-08 20:57:00,42.6,-0.4,17.73,NNE,25,0.0,4.0,16,0.00,,,0.00,meteohub,2013-03-09 01:57:00,
2013-03-08 21:02:00,42.4,-0.6,17.73,NNE,25,0.0,4.0,16,0.00,,,0.00,meteohub,2013-03-09 02:02:00,
2013-03-08 21:07:00,42.3,-0.8,17.73,NNE,30,3.0,5.0,16,0.00,,,0.00,meteohub,2013-03-09 02:07:00,
2013-03-08 21:12:00,42.1,-0.9,17.73,North,5,0.0,6.0,16,0.00,,,0.00,meteohub,2013-03-09 02:12:00,
2013-03-08 21:17:00,42.1,-0.9,17.73,NNE,14,0.0,6.0,16,0.00,,,0.00,meteohub,2013-03-09 02:17:00,
2013-03-08 21:22:00,41.9,-1.1,17.73,NE,35,4.0,6.0,16,0.00,,,0.00,meteohub,2013-03-09 02:22:00,
2013-03-08 21:27:00,42.1,1.6,17.73,NNE,18,0.0,8.0,18,0.00,,,0.00,meteohub,2013-03-09 02:27:00,
2013-03-08 21:32:00,42.4,1.9,17.73,NNW,334,5.0,8.0,18,0.00,,,0.00,meteohub,2013-03-09 02:32:00,
2013-03-08 21:37:00,43.0,2.3,17.73,NNE,25,5.0,8.0,18,0.00,,,0.00,meteohub,2013-03-09 02:37:00,
2013-03-08 21:42:00,43.2,2.5,17.73,ENE,78,5.0,10.0,18,0.00,,,0.00,meteohub,2013-03-09 02:42:00,
2013-03-08 21:47:00,43.2,2.5,17.73,NNE,13,4.0,10.0,18,0.00,,,0.00,meteohub,2013-03-09 02:47:00,
2013-03-08 21:52:00,43.0,2.3,17.73,North,357,4.0,10.0,18,0.00,,,0.00,meteohub,2013-03-09 02:52:00,
2013-03-08 21:57:00,43.0,2.3,17.73,NNE,17,5.0,10.0,18,0.00,,,0.00,meteohub,2013-03-09 02:57:00,
2013-03-08 22:02:00,42.8,2.1,17.73,NNE,19,0.0,8.0,18,0.00,,,0.00,meteohub,2013-03-09 03:02:00,
2013-03-08 22:07:00,42.8,2.1,17.73,ENE,65,4.0,8.0,18,0.00,,,0.00,meteohub,2013-03-09 03:07:00,
2013-03-08 22:12:00,42.6,2.1,17.73,NNE,20,6.0,8.0,18,0.00,,,0.00,meteohub,2013-03-09 03:12:00,
2013-03-08 22:17:00,42.6,2.1,17.73,North,357,6.0,6.0,18,0.00,,,0.00,meteohub,2013-03-09 03:17:00,
2013-03-08 22:22:00,42.4,1.9,17.73,North,357,3.0,6.0,18,0.00,,,0.00,meteohub,2013-03-09 03:22:00,
2013-03-08 22:27:00,42.3,1.8,17.73,North,357,2.0,8.0,18,0.00,,,0.00,meteohub,2013-03-09 03:27:00,
2013-03-08 22:32:00,41.9,1.4,17.73,NNE,19,3.0,8.0,18,0.00,,,0.00,meteohub,2013-03-09 03:32:00,
2013-03-08 22:37:00,41.5,1.2,17.73,NNE,25,0.0,7.0,18,0.00,,,0.00,meteohub,2013-03-09 03:37:00,
2013-03-08 22:43:00,41.2,0.9,17.73,ENE,61,0.0,7.0,18,0.00,,,0.00,meteohub,2013-03-09 03:43:00,
2013-03-08 22:48:00,40.8,0.5,17.73,NE,38,0.0,6.0,18,0.00,,,0.00,meteohub,2013-03-09 03:48:00,
2013-03-08 22:53:00,40.6,0.5,17.73,North,357,0.0,5.0,18,0.00,,,0.00,meteohub,2013-03-09 03:53:00,
2013-03-08 22:58:00,40.3,0.1,17.73,North,353,0.0,3.0,18,0.00,,,0.00,meteohub,2013-03-09 03:58:00,
2013-03-08 23:03:00,39.9,-0.2,17.73,North,0,0.0,3.0,18,0.00,,,0.00,meteohub,2013-03-09 04:03:00,
2013-03-08 23:08:00,39.6,-0.4,17.73,North,8,0.0,4.0,18,0.00,,,0.00,meteohub,2013-03-09 04:08:00,
2013-03-08 23:13:00,39.4,2.7,17.73,North,353,0.0,4.0,21,0.00,,,0.00,meteohub,2013-03-09 04:13:00,
2013-03-08 23:18:00,39.2,2.5,17.73,NNE,14,0.0,5.0,21,0.00,,,0.00,meteohub,2013-03-09 04:18:00,
2013-03-08 23:23:00,39.2,2.5,17.73,NE,42,2.0,5.0,21,0.00,,,0.00,meteohub,2013-03-09 04:23:00,
2013-03-08 23:28:00,39.2,2.5,17.73,NE,39,3.0,5.0,21,0.00,,,0.00,meteohub,2013-03-09 04:28:00,
2013-03-08 23:34:00,39.2,2.5,17.73,North,353,5.0,6.0,21,0.00,,,0.00,meteohub,2013-03-09 04:34:00,
2013-03-08 23:39:00,39.2,2.5,17.73,North,11,2.0,6.0,21,0.00,,,0.00,meteohub,2013-03-09 04:39:00,
2013-03-08 23:44:00,39.4,2.7,17.73,North,349,0.0,6.0,21,0.00,,,0.00,meteohub,2013-03-09 04:44:00,
2013-03-08 23:49:00,39.4,4.6,17.73,NNW,340,0.0,5.0,23,0.00,,,0.00,meteohub,2013-03-09 04:49:00,
2013-03-08 23:54:00,39.2,4.5,17.73,NNE,14,4.0,5.0,23,0.00,,,0.00,meteohub,2013-03-09 04:54:00,
2013-03-08 23:59:00,39.2,4.5,17.73,NNE,30,0.0,6.0,23,0.00,,,0.00,meteohub,2013-03-09 04:59:00,